This demonstration page uses our WeatherBlox Daily Observations layout. Learn more.

Left ArrowRight Arrow

39.08367, -84.50855

Hourly Observations for October 18, 2018

Temp ( °F °C ) Dew Point ( °F °C ) Humidity (%) Winds ( mph kmh ) Pressure ( in mb ) Visibility ( mi km ) Precip ( " mm )
12:53 am 00:53 Clear 42 5.6 33 0.6 71 71 NNE 6 9 30.48 1032 10 16 N/A
1:53 am 01:53 Clear 41 5 35 1.7 79 79 NE 3 6 30.50 1033 10 16 N/A
2:53 am 02:53 Clear 38 3.3 35 1.7 89 89 N N/A 30.48 1032 10 16 N/A
3:53 am 03:53 Clear 35 1.7 35 1.7 100 100 N N/A 30.50 1033 10 16 N/A
4:53 am 04:53 Clear 35 1.7 34 1.1 96 96 N N/A 30.51 1033 10 16 N/A
5:53 am 05:53 Clear 35 1.7 34 1.1 96 96 N N/A 30.52 1034 10 16 N/A
6:53 am 06:53 Clear 33 0.6 33 0.6 100 100 ENE 3 6 30.54 1034 10 16 N/A
7:53 am 07:53 Sunny 33 0.6 33 0.6 100 100 NE 3 6 30.55 1035 10 16 N/A
8:25 am 08:25 Partly Cloudy with Patchy Fog 34 1.1 33 0.6 97 97 NNE 3 6 30.59 1036 10 16 N/A
8:53 am 08:53 Partly Cloudy with Patchy Fog 34 1.1 34 1.1 100 100 NE 3 6 30.56 1035 10 16 N/A
9:53 am 09:53 Sunny 42 5.6 38 3.3 85 85 N N/A 30.58 1035 10 16 N/A
10:53 am 10:53 Sunny 48 8.9 32 undefined 54 54 ENE 6 9 30.58 1035 10 16 N/A
11:53 am 11:53 Sunny 51 10.6 31 -0.6 46 46 ESE 7 11 30.58 1035 10 16 N/A
12:53 pm 12:53 Sunny 52 11.1 32 undefined 47 47 VRB 5 7 30.56 1035 10 16 N/A
1:53 pm 13:53 Sunny 54 12.2 32 undefined 43 43 N N/A 30.53 1034 10 16 N/A
2:53 pm 14:53 Sunny 55 12.8 33 0.6 44 44 N N/A 30.50 1033 10 16 N/A
3:53 pm 15:53 Sunny 56 13.3 32 undefined 40 40 N N/A 30.48 1032 10 16 N/A
4:53 pm 16:53 Sunny 55 12.8 32 undefined 42 42 S 3 6 30.47 1032 10 16 N/A
5:53 pm 17:53 Sunny 55 12.8 34 1.1 45 45 N N/A 30.45 1031 10 16 N/A
6:53 pm 18:53 Sunny 48 8.9 41 5 77 77 N N/A 30.45 1031 10 16 N/A
7:53 pm 19:53 Clear 43 6.1 39 3.9 86 86 N N/A 30.45 1031 10 16 N/A
8:53 pm 20:53 Clear 41 5 38 3.3 89 89 N N/A 30.45 1031 10 16 N/A
9:53 pm 21:53 Clear 40 4.4 39 3.9 97 97 N N/A 30.45 1031 10 16 N/A
10:53 pm 22:53 Clear 39 3.9 38 3.3 96 96 N N/A 30.45 1031 10 16 N/A
11:53 pm 23:53 Clear 37 2.8 37 2.8 100 100 N N/A 30.43 1030 10 16 N/A

Powered by AerisWeather